Regional Weather Roundup
Issued by NWS Charleston, SC

Current Version | Previous Version | Text Only | Print | Product List | Glossary Off
Versions: 1 2 3 4 5 6 7 8 9 10 11 12 13 14 15 16 17 18 19 20 21 22 23 24 25 26 27 28 29 30 31 32 33 34 35 36 37 38 39 40 41 42 43 44 45 46 47 48 49 50
000 ASUS42 KCHS 211212 RWRCHS REGIONAL WEATHER ROUNDUP NATIONAL WEATHER SERVICE CHARLESTON SC 700 AM EST SAT JAN 21 2017 NOTE: "FAIR" INDICATES FEW OR NO CLOUDS BELOW 12,000 FEET WITH NO SIGNIFICANT WEATHER AND/OR OBSTRUCTIONS TO VISIBILITY. NOT ALL STATIONS ARE QUALITY CONTROLLED. USE DATA WITH CAUTION... ESPECIALLY DEWPOINT OBSERVATIONS. SCZ027-030-031-034>040-042>050-211300- ...SOUTHEAST SOUTH CAROLINA... CITY SKY/WX TMP DP RH WIND PRES REMARKS N CHARLESTON MOCLDY 64 62 93 SW6 29.88S 6HR MIN TEMP: 63; 6HR MAX TEMP: 66; 6HR PCP: TRACE; WATERFRONT PRK N/A 64 63 96 CALM 29.87R MOUNT PLEASANT PTSUNNY 64 64 100 CALM 29.88F JOHNS ISLAND PTSUNNY 64 63 94 S6 29.90R PINOPOLIS N/A 63 63 100 CALM 29.79S MONCKS CORNER CLOUDY 61 61 100 CALM 29.88S FOG SUMMERVILLE CLOUDY N/A N/A N/A CALM 29.89S BEAUFORT MCAS CLOUDY 65 63 93 CALM 29.88S 6HR MIN TEMP: 61; 6HR MAX TEMP: 65; 6HR PCP: TRACE; BEAUFORT ARPT CLOUDY 63 61 94 S3 29.88S HILTON HEAD IS CLEAR 64 64 100 S7 29.90S WALTERBORO CLOUDY 63 63 100 CALM 29.89S ALLENDALE CLOUDY 64 64 100 CALM 29.86S FOG ...SOUTHERN MIDLANDS AND PEE DEE... CITY SKY/WX TMP DP RH WIND PRES REMARKS GEORGETOWN CLOUDY 63 61 94 CALM 29.90R KINGSTREE CLOUDY 59 57 94 CALM 29.89R ORANGEBURG CLOUDY 61 60 97 CALM 29.88S FOG 6HR MIN TEMP: 59; 6HR MAX TEMP: 62; 6HR PCP: TRACE; BARNWELL CLOUDY 63 63 100 CALM 29.87S AIKEN FOG 61 59 94 CALM 29.88F VSB 1/4 MANNING PTSUNNY 57 55 94 CALM 29.90R FOG COLUMBIA FOG 60 57 89 E3 29.87S VSB 1/2 6HR MIN TEMP: 56; 6HR MAX TEMP: 61; SUMTER MOCLDY 57 56 96 CALM 29.87R 6HR MIN TEMP: 54; 6HR MAX TEMP: 58; FLORENCE FOG 55 54 96 S3 29.90R VSB 1/2 6HR MIN TEMP: 54; 6HR MAX TEMP: 59; MYRTLE BEACH CLOUDY 61 55 82 CALM 29.91R N MYRTLE BEACH CLOUDY 56 56 100 N3 29.90R FOG 6HR MIN TEMP: 52; 6HR MAX TEMP: 56; $$ GAZ063-065-086>088-099>101-113>116-118-119-134>141-150-211300- ...SOUTHEAST GEORGIA... CITY SKY/WX TMP DP RH WIND PRES REMARKS SAVANNAH ARPT CLOUDY 66 63 90 S5 29.88S 6HR MIN TEMP: 63; 6HR MAX TEMP: 66; HUNTER AAF CLOUDY 67 67 100 SE5 29.86S 6HR MIN TEMP: 65; 6HR MAX TEMP: 67; FORT STEWART CLOUDY 66 64 94 CALM 29.85F 6HR MIN TEMP: 62; 6HR MAX TEMP: 66; STATESBORO FOG 64 50 60 CALM 29.86F VSB 3/4 SYLVANIA RAIN N/A N/A N/A CALM 29.87F CLAXTON PTSUNNY N/A N/A N/A CALM 29.87S HAZE ...CSRA...CENTRAL AND FAR SOUTHEAST GEORGIA... CITY SKY/WX TMP DP RH WIND PRES REMARKS THOMSON CLOUDY 63 63 100 CALM 29.88F AUGUSTA-BUSH CLOUDY 62 59 90 CALM 29.85S 6HR MIN TEMP: 58; 6HR MAX TEMP: 63; AUGUSTA-DANIEL CLOUDY 63 59 87 CALM 29.86S SWAINSBORO CLOUDY 64 64 100 CALM 29.86F VIDALIA LGT RAIN 68 68 100 S5 29.86R EASTMAN CLOUDY 68 68 100 CALM 29.86F FOG HAZLEHURST LGT RAIN 69 69 100 S5 29.85S ALMA CLOUDY 68 68 100 CALM 29.86S 6HR MIN TEMP: 68; 6HR MAX TEMP: 69; WAYCROSS LGT RAIN 72 72 100 S7 29.86S JESUP CLOUDY 70 64 83 S3 29.88S BAXLEY LGT RAIN 70 70 100 SE6 29.86S BRUNSWICK CLOUDY 68 68 100 S5 29.90S FOG SAINT SIMONS CLOUDY 67 65 93 SW8 29.90R 6HR MIN TEMP: 66; 6HR MAX TEMP: 67; $$ SCZ027-028-034-036>038-045-046-048>050-GAZ119-141-211300- ...LAKE AND SUPPLEMENTAL COASTAL OBSERVATIONS... STATION/POSITION TIME TEMP WIND PRES WAVE SWELL AIR SEA DIR/SP/G HT/PER HT/PER/DIR (UTC) (F) (DEG/KT/KT) (MB) (FT/S) (FT/S/D) WINYAH BAY 1045 60 110/ 2 1011.0 LAKE MURRAY 1120 59 CALM 1011.9 ACE BASIN NERRS 1045 61 CALM 1012.0 FORT PULASKI 1148 63 58 170/ 3/ 4 1012.3R SAPELO ISLAND 1100 65 200/ 1 1012.0 $$ ANZ835-935-AMZ111-154-330-350-352-354-370-450-454-472-211300- ...C-MAN AND BUOY OBSERVATIONS... STATION/POSITION TIME TEMP WIND PRES WAVE SWELL AIR SEA DIR/SP/G HT/PER HT/PER/DIR (UTC) (F) (DEG/KT/KT) (MB) (FT/S) (FT/S/D) BUOY 41004 1050 70 67 220/ 10/ 12 1011.5 2/11 2/110/11 BUOY 41008 1050 63 61 220/ 10/ 14 1011.7 2/13 2/ 40/13 FOLLY BEACH CMAN 1200 63 230/ 8/ 10 1012.8R CAPERS NEARSHORE 1108 58 56 240/ 4/ 6 1011.6R FRIPP NEARSHORE 1108 61 58 220/ 8/ 12 1011.8R STATION/POSITION TIME TEMP WIND PRES WAVE SWELL AIR SEA DIR/SP/G HT/PER HT/PER/DIR (UTC) (F) (DEG/KT/KT) (MB) (FT/S) (FT/S/D) 5E ST. MARYS GA 1130 63 N/A 2/14 2/ 80/14 FRYING PAN BUOY 1150 70 70 10/ 2/ 2 1012.4S 3/10 2/100/10 BUOY 41025 1150 58 74 10/ 10/ 14 1013.5R 4/11 3/ 80/11 CAPE LOOKOUT NC 1200 52 10/ 6/ 7 1013.1R BUOY 41002 1050 72 70 320/ 14/ 16 1013.0 6/ 6 3/ 70/11 BUOY 41010 NOT AVBL ST AUGUSTINE FL 1200 64 63 220/ 7/ 8 1013.7R $$

USA.gov is the U.S. government's official web portal to all federal, state and local government web resources and services.